Precipitable_Water
1.24 1.24 1.20 1.17 1.13 1.12 1.11 1.11 1.11 1.08 1.09 1.14 1.14 1.18 1.24 1.29 1.37 1.36 1.38 1.43 1.46 1.48 1.51 1.54 1.56 1.56 1.55 1.50 1.40 1.31 1.25 1.23 1.20 1.17 1.14 1.13 1.13 1.13 1.10 1.08 1.09 1.11
1.24 1.24 1.24 1.23 1.21 1.20 1.17 1.15 1.12 1.10 1.08 1.11 1.15 1.20 1.29 1.35 1.33 1.33 1.34 1.39 1.46 1.49 1.54 1.55 1.54 1.53 1.52 1.48 1.39 1.27 1.22 1.21 1.17 1.20 1.14 1.11 1.11 1.13 1.12 1.12 1.11 1.14
1.26 1.26 1.25 1.20 1.17 1.16 1.16 1.16 1.15 1.14 1.11 1.11 1.17 1.24 1.28 1.34 1.32 1.33 1.36 1.41 1.45 1.50 1.55 1.55 1.53 1.51 1.50 1.46 1.41 1.30 1.21 1.19 1.16 1.18 1.16 1.10 1.11 1.10 1.12 1.14 1.12 1.11
1.30 1.31 1.29 1.26 1.24 1.21 1.22 1.19 1.17 1.17 1.17 1.15 1.15 1.20 1.28 1.32 1.33 1.33 1.38 1.44 1.46 1.51 1.55 1.54 1.51 1.50 1.47 1.45 1.41 1.33 1.26 1.23 1.22 1.22 1.17 1.14 1.11 1.11 1.12 1.14 1.13 1.12
1.33 1.35 1.37 1.35 1.32 1.30 1.27 1.21 1.17 1.17 1.15 1.14 1.16 1.23 1.26 1.28 1.29 1.32 1.37 1.42 1.47 1.51 1.54 1.52 1.51 1.48 1.46 1.43 1.41 1.34 1.30 1.26 1.26 1.24 1.19 1.13 1.12 1.10 1.12 1.13 1.11 1.09
1.42 1.44 1.44 1.41 1.38 1.34 1.28 1.22 1.20 1.19 1.18 1.18 1.19 1.23 1.24 1.26 1.26 1.30 1.36 1.40 1.46 1.50 1.50 1.51 1.48 1.46 1.43 1.39 1.38 1.35 1.32 1.28 1.27 1.26 1.21 1.16 1.11 1.12 1.13 1.13 1.11 1.07
1.41 1.44 1.45 1.47 1.44 1.41 1.34 1.29 1.27 1.25 1.23 1.23 1.26 1.24 1.26 1.24 1.24 1.27 1.35 1.41 1.45 1.47 1.46 1.46 1.45 1.43 1.41 1.38 1.35 1.32 1.32 1.31 1.30 1.28 1.23 1.20 1.16 1.11 1.14 1.13 1.11 1.08
1.45 1.48 1.49 1.49 1.45 1.41 1.36 1.33 1.30 1.27 1.27 1.28 1.24 1.27 1.28 1.24 1.23 1.26 1.32 1.40 1.43 1.44 1.45 1.45 1.45 1.43 1.41 1.37 1.32 1.30 1.30 1.33 1.31 1.29 1.26 1.23 1.21 1.13 1.13 1.15 1.14 1.10
1.49 1.48 1.50 1.49 1.45 1.41 1.36 1.35 1.34 1.33 1.33 1.27 1.25 1.26 1.29 1.26 1.24 1.26 1.30 1.36 1.40 1.42 1.43 1.42 1.42 1.41 1.41 1.37 1.32 1.29 1.29 1.31 1.33 1.33 1.32 1.28 1.22 1.16 1.15 1.18 1.16 1.12
1.47 1.48 1.48 1.48 1.44 1.42 1.38 1.39 1.40 1.38 1.37 1.31 1.28 1.28 1.25 1.27 1.28 1.27 1.30 1.33 1.36 1.39 1.40 1.39 1.39 1.40 1.39 1.37 1.34 1.32 1.30 1.29 1.32 1.34 1.36 1.37 1.34 1.29 1.26 1.25 1.22 1.18
1.44 1.46 1.44 1.44 1.44 1.45 1.43 1.44 1.43 1.40 1.37 1.31 1.29 1.25 1.26 1.28 1.28 1.30 1.29 1.31 1.32 1.34 1.35 1.36 1.35 1.36 1.36 1.36 1.36 1.36 1.34 1.32 1.31 1.32 1.35 1.38 1.39 1.40 1.41 1.40 1.36 1.28
1.42 1.42 1.40 1.40 1.42 1.43 1.43 1.43 1.41 1.38 1.33 1.31 1.28 1.24 1.26 1.27 1.26 1.26 1.26 1.26 1.29 1.31 1.33 1.33 1.35 1.36 1.35 1.35 1.36 1.36 1.35 1.33 1.33 1.33 1.34 1.38 1.41 1.42 1.44 1.46 1.45 1.44
1.39 1.38 1.39 1.41 1.42 1.43 1.45 1.44 1.41 1.39 1.35 1.28 1.27 1.24 1.22 1.21 1.24 1.24 1.26 1.25 1.26 1.29 1.29 1.30 1.32 1.34 1.34 1.35 1.36 1.36 1.34 1.32 1.31 1.31 1.32 1.35 1.39 1.42 1.45 1.48 1.50 1.51
1.39 1.41 1.43 1.44 1.46 1.47 1.45 1.43 1.43 1.41 1.38 1.35 1.31 1.23 1.19 1.19 1.19 1.20 1.22 1.24 1.24 1.25 1.27 1.30 1.30 1.31 1.32 1.34 1.35 1.35 1.34 1.32 1.32 1.31 1.31 1.33 1.36 1.41 1.45 1.49 1.54 1.57
1.44 1.47 1.49 1.49 1.49 1.47 1.45 1.42 1.42 1.41 1.39 1.35 1.29 1.23 1.21 1.19 1.21 1.21 1.20 1.19 1.22 1.25 1.26 1.29 1.28 1.28 1.30 1.31 1.31 1.33 1.34 1.32 1.34 1.35 1.36 1.35 1.37 1.41 1.47 1.52 1.57 1.61
1.46 1.48 1.49 1.50 1.49 1.46 1.44 1.43 1.42 1.40 1.36 1.31 1.25 1.23 1.20 1.19 1.19 1.20 1.19 1.17 1.17 1.21 1.24 1.26 1.26 1.28 1.29 1.31 1.33 1.33 1.33 1.34 1.37 1.40 1.41 1.42 1.42 1.44 1.51 1.57 1.62 1.66
1.43 1.45 1.48 1.47 1.48 1.49 1.48 1.45 1.42 1.40 1.34 1.28 1.24 1.22 1.20 1.19 1.18 1.15 1.15 1.17 1.17 1.17 1.18 1.22 1.24 1.26 1.26 1.29 1.31 1.35 1.37 1.38 1.38 1.40 1.44 1.47 1.49 1.52 1.55 1.62 1.68 1.73
1.40 1.43 1.45 1.45 1.49 1.48 1.48 1.47 1.44 1.40 1.34 1.29 1.24 1.21 1.20 1.21 1.16 1.12 1.14 1.16 1.17 1.17 1.16 1.18 1.21 1.24 1.26 1.27 1.31 1.35 1.40 1.42 1.43 1.44 1.47 1.50 1.55 1.60 1.64 1.70 1.73 1.74
1.43 1.43 1.42 1.43 1.45 1.48 1.52 1.50 1.45 1.40 1.36 1.33 1.26 1.24 1.22 1.16 1.11 1.12 1.13 1.16 1.16 1.13 1.13 1.18 1.20 1.23 1.25 1.27 1.31 1.36 1.42 1.46 1.48 1.48 1.48 1.51 1.58 1.63 1.71 1.71 1.67 1.69
1.44 1.43 1.41 1.42 1.47 1.51 1.54 1.51 1.47 1.40 1.39 1.39 1.37 1.32 1.23 1.16 1.13 1.10 1.11 1.13 1.14 1.13 1.14 1.19 1.20 1.21 1.23 1.27 1.31 1.37 1.43 1.48 1.50 1.50 1.49 1.53 1.58 1.64 1.67 1.57 1.58 1.66
1.46 1.45 1.42 1.46 1.50 1.53 1.54 1.52 1.50 1.49 1.48 1.46 1.42 1.35 1.27 1.19 1.13 1.10 1.11 1.12 1.15 1.17 1.16 1.17 1.18 1.21 1.23 1.27 1.31 1.37 1.44 1.49 1.51 1.50 1.51 1.53 1.59 1.63 1.62 1.64 1.75 1.76
1.43 1.45 1.47 1.50 1.52 1.54 1.53 1.52 1.53 1.55 1.52 1.52 1.50 1.46 1.42 1.34 1.26 1.20 1.13 1.12 1.15 1.16 1.15 1.13 1.17 1.22 1.24 1.28 1.33 1.39 1.47 1.49 1.48 1.49 1.51 1.54 1.60 1.63 1.66 1.71 1.75 1.74
1.43 1.45 1.48 1.51 1.54 1.54 1.53 1.53 1.54 1.57 1.61 1.65 1.56 1.51 1.45 1.39 1.31 1.25 1.23 1.20 1.17 1.17 1.14 1.12 1.17 1.22 1.25 1.29 1.34 1.42 1.46 1.47 1.47 1.50 1.51 1.53 1.55 1.59 1.60 1.66 1.71 1.76
1.40 1.41 1.41 1.43 1.47 1.45 1.47 1.53 1.60 1.66 1.66 1.70 1.60 1.53 1.50 1.48 1.44 1.38 1.33 1.28 1.21 1.17 1.16 1.14 1.16 1.23 1.26 1.31 1.37 1.43 1.45 1.45 1.48 1.50 1.50 1.55 1.54 1.55 1.61 1.66 1.73 1.77
1.42 1.43 1.45 1.47 1.48 1.51 1.56 1.58 1.61 1.63 1.70 1.77 1.72 1.67 1.59 1.59 1.56 1.44 1.37 1.35 1.30 1.26 1.25 1.22 1.21 1.24 1.28 1.34 1.40 1.44 1.47 1.51 1.53 1.52 1.51 1.54 1.51 1.52 1.64 1.69 1.73 1.75
1.41 1.42 1.43 1.44 1.44 1.48 1.55 1.61 1.69 1.73 1.74 1.72 1.73 1.74 1.67 1.63 1.59 1.52 1.42 1.37 1.37 1.35 1.32 1.29 1.26 1.28 1.31 1.36 1.42 1.45 1.49 1.55 1.58 1.54 1.51 1.51 1.50 1.52 1.56 1.63 1.67 1.71
Wind_Speed
24 23 23 23 23 22 22 21 21 21 20 20 19 19 18 17 17 16 16 16 16 15 14 13 12 11 10 9 9 8 8 8 8 7 8 8 8 8 7 8 8 8
25 24 24 24 23 23 22 22 22 21 21 20 20 20 19 18 18 17 17 17 17 16 15 14 13 12 11 10 10 9 9 8 8 8 8 9 9 8 8 9 9 9
27 26 25 25 24 24 23 23 22 22 22 21 21 20 20 19 19 18 18 17 17 17 16 15 14 13 12 11 11 10 10 9 9 8 9 9 9 9 9 10 10 9
28 28 27 26 25 25 24 23 23 23 22 22 21 21 21 20 20 19 19 18 18 18 17 16 15 14 13 12 12 11 10 10 9 9 9 10 10 10 10 10 10 10
28 28 28 27 27 26 25 25 24 24 23 23 22 22 21 21 21 20 20 19 19 19 18 17 15 15 14 13 13 12 11 11 10 10 10 10 10 11 11 11 11 11
27 28 28 28 27 27 26 26 25 24 24 23 23 22 22 22 22 22 21 20 20 20 19 18 17 16 15 14 13 13 12 12 11 11 11 11 11 11 11 12 12 12
27 27 28 28 28 28 27 27 26 25 25 24 24 23 23 23 23 23 22 21 21 21 20 19 18 17 16 15 14 14 13 13 12 12 12 12 12 12 12 12 12 12
26 27 27 28 28 28 28 28 27 26 26 25 24 24 24 24 24 24 23 22 22 22 21 20 19 18 17 16 15 15 14 14 14 13 13 13 13 13 13 13 13 13
26 26 27 27 28 28 28 28 28 27 26 26 25 25 25 25 25 25 24 24 23 23 22 21 20 19 18 17 17 16 16 15 15 15 14 14 14 14 14 14 14 14
25 26 26 27 27 27 28 28 28 27 27 26 26 25 26 26 26 25 25 25 24 24 23 22 21 20 19 18 18 17 17 16 16 16 16 15 15 15 15 15 15 15
26 26 26 26 27 27 27 27 27 27 27 27 26 26 26 26 26 26 26 26 25 25 24 23 22 21 20 19 19 18 18 17 17 17 17 17 16 16 16 17 17 17
26 26 26 26 26 26 26 27 27 27 27 27 27 27 27 27 27 27 27 27 26 26 25 24 23 22 21 20 20 19 19 18 18 18 18 18 18 18 18 18 18 19
27 27 26 26 25 25 25 26 26 26 27 27 27 27 28 28 28 28 28 28 27 27 26 25 24 23 22 22 21 20 19 19 19 18 18 18 18 19 19 19 20 20
28 27 26 26 25 25 25 25 25 26 26 27 27 27 28 28 29 29 29 28 28 28 27 26 25 24 24 23 22 21 21 20 19 19 19 19 19 20 20 20 21 21
29 28 28 27 26 26 26 25 25 26 26 26 27 27 28 28 29 30 30 29 29 28 28 27 26 25 25 24 23 22 22 21 20 20 20 20 20 20 20 21 21 22
30 30 29 28 27 27 26 26 25 25 26 26 27 27 28 28 29 30 30 30 29 29 29 28 27 26 26 26 25 24 23 22 21 21 21 21 21 21 21 21 21 22
30 30 30 30 29 28 27 27 26 25 25 26 27 28 28 29 29 30 30 30 30 30 30 29 28 28 27 27 26 25 24 23 22 22 21 21 21 21 21 21 21 21
31 31 31 31 31 30 29 28 27 27 26 26 26 27 28 29 30 30 31 30 30 31 31 30 29 29 28 28 27 26 25 24 23 23 23 22 22 21 21 20 20 20
31 31 32 32 32 32 31 30 29 28 28 27 27 27 27 29 30 31 31 31 31 31 31 31 30 30 29 29 28 27 26 25 25 24 24 23 23 22 21 21 20 21
32 32 32 33 33 33 32 32 31 30 29 28 28 27 28 29 30 31 32 32 32 32 32 32 31 31 30 30 29 28 27 27 26 26 25 24 23 23 23 23 23 23
32 33 33 33 33 33 34 34 33 32 31 30 29 29 29 29 30 31 32 32 32 32 32 32 32 32 31 31 30 29 28 28 28 26 25 24 23 24 24 24 24 24
31 32 32 32 33 34 34 35 35 34 33 32 31 31 31 30 31 31 32 33 33 33 33 33 33 33 32 32 31 30 29 29 28 27 26 25 24 24 24 24 24 25
30 31 31 32 33 34 35 36 36 36 35 35 34 33 32 32 32 32 33 33 33 34 34 34 33 33 33 32 31 31 30 30 29 28 27 26 25 24 24 24 25 25
30 30 31 32 32 33 35 35 36 37 37 37 36 35 35 34 34 33 34 34 34 35 35 35 34 34 34 33 32 32 31 30 29 29 28 27 26 25 25 25 26 26
31 31 31 32 32 33 34 35 36 36 37 38 38 38 37 36 35 35 35 35 36 36 36 36 36 35 35 34 33 33 32 31 30 29 28 27 26 25 25 25 26 26
32 32 32 32 33 34 34 35 35 36 37 38 39 39 39 38 37 37 37 37 37 37 37 38 37 36 35 35 34 34 33 32 31 30 29 28 27 26 25 25 25 25
Wind_Direction
231 232 233 233 233 234 235 235 235 236 237 236 236 237 237 239 239 238 237 235 234 235 236 239 244 249 253 257 261 269 278 286 294 303 309 312 314 316 317 321 325 329
231 232 233 234 234 235 235 235 235 237 238 237 237 238 238 238 238 238 237 234 233 234 235 239 243 247 251 255 259 266 273 281 289 298 303 305 308 310 311 314 318 322
232 233 233 234 235 235 235 235 236 238 239 238 238 238 238 237 237 237 236 234 232 233 235 239 243 246 248 252 257 263 269 276 285 294 298 301 304 306 307 310 313 315
233 234 234 234 235 236 236 236 236 238 239 239 238 237 237 237 236 235 235 233 232 233 235 238 242 245 247 250 255 260 265 272 281 289 294 296 299 300 301 305 307 309
235 235 235 235 235 236 236 236 236 237 238 238 238 237 237 236 235 234 234 233 232 233 236 238 241 244 246 249 253 258 263 269 277 283 288 291 293 293 296 298 300 302
236 236 235 235 236 236 236 236 237 237 238 238 237 236 236 235 234 234 234 234 233 234 236 238 240 243 245 248 252 257 261 266 272 277 281 286 289 289 291 293 296 298
236 236 236 236 237 237 237 237 237 238 238 239 237 236 235 234 233 233 233 234 234 235 236 238 240 242 245 249 252 255 259 264 269 272 276 281 285 286 287 289 292 294
236 236 237 237 237 238 238 238 238 238 238 239 237 235 234 234 233 233 233 234 234 235 236 237 239 242 245 248 251 255 258 262 266 269 272 277 281 283 284 286 290 292
236 236 237 237 238 238 238 238 238 239 239 238 237 235 234 233 233 233 233 234 234 235 235 237 239 241 244 247 250 254 257 261 265 268 271 274 278 281 282 285 287 289
236 236 237 237 237 238 238 238 239 239 239 238 237 236 234 233 233 233 233 234 235 235 235 236 238 240 243 246 249 253 256 261 264 267 270 273 277 280 283 285 287 289
235 237 237 237 237 237 238 238 238 238 238 238 237 235 234 233 233 233 233 234 235 235 235 236 238 239 242 246 249 252 256 260 264 267 270 273 277 280 283 285 287 289
235 237 237 237 238 238 238 238 238 237 237 237 236 235 234 233 233 233 233 234 235 235 235 237 238 240 242 246 249 252 255 259 263 266 269 273 277 280 283 285 287 288
235 237 237 237 238 238 239 239 238 238 237 237 237 235 234 234 233 233 234 234 235 235 236 237 239 240 243 245 248 251 254 258 262 266 270 274 277 280 283 285 286 287
235 237 237 237 238 239 239 239 238 238 238 238 237 236 235 235 234 233 234 235 235 236 236 238 239 241 243 245 247 250 253 257 261 265 269 273 276 279 282 285 286 288
235 237 237 238 239 239 239 239 239 239 239 238 238 237 236 236 235 234 234 235 236 236 236 238 239 241 243 244 246 249 252 256 260 264 268 271 275 278 281 284 287 289
235 236 236 237 238 239 240 240 240 240 240 240 239 238 237 236 235 235 235 236 236 236 237 238 239 242 242 243 245 248 252 256 259 263 267 270 274 278 281 284 287 289
236 236 236 236 238 239 240 240 241 241 241 241 241 239 238 237 236 236 236 236 237 237 237 238 239 241 242 243 245 247 251 255 259 262 266 270 273 276 280 285 288 289
236 237 237 237 237 239 240 241 241 242 242 243 242 241 239 238 237 236 236 237 237 238 238 238 239 240 241 243 245 246 250 254 258 262 265 269 272 274 278 284 288 289
236 236 237 238 238 239 240 241 241 242 242 243 243 243 242 240 238 237 236 237 238 238 238 238 239 240 241 243 244 246 249 252 257 261 264 267 270 271 275 280 282 285
236 237 238 239 239 240 240 241 242 242 243 243 244 244 244 243 240 238 237 238 239 239 239 239 239 240 240 242 244 246 248 251 256 261 263 266 268 269 271 275 279 284
236 237 238 239 239 240 240 241 242 243 243 244 244 245 245 244 242 241 239 239 239 239 239 240 240 240 240 242 243 245 247 251 256 260 262 264 267 268 270 273 278 284
236 237 238 239 239 240 241 242 242 243 244 244 244 245 245 246 245 243 241 240 240 240 240 240 240 240 240 241 243 244 246 251 255 259 261 263 266 268 270 273 278 283
237 237 238 239 240 241 242 243 243 243 244 244 244 245 245 246 246 244 243 242 241 241 241 241 241 241 241 241 242 243 246 251 255 257 259 261 264 267 270 274 279 283
239 239 240 241 242 243 244 244 244 244 244 244 244 244 245 245 245 245 244 243 242 242 241 242 242 241 241 241 242 242 245 250 253 256 258 260 263 266 270 274 279 282
241 241 242 242 243 245 246 245 245 245 245 244 244 244 244 244 245 245 245 245 244 243 242 242 242 242 241 241 241 242 245 249 253 255 257 259 262 265 270 274 278 280
243 243 243 244 246 247 247 247 247 247 246 244 244 244 243 243 243 245 245 245 244 244 243 242 242 243 242 241 241 243 245 248 251 254 256 258 261 265 269 274 277 279